Bloomington, IN

5:51 PM EST on February 23, 2018 (GMT -0500)
Monroe County

Weather History for KBMG - July, 2012

Change the Weather History Date:

Tuesday, July 10, 2012

  Actual Average Record
Temperature  
Mean Temperature 78 °F 74 °F  
Max Temperature 94 °F 84 °F 94 °F (2012)
Min Temperature 61 °F 64 °F 57 °F (1996)
Degree Days  
Heating Degree Days 0 0  
Month to date heating degree days 0 0  
Since 1 June heating degree days 22 15  
Since 1 July heating degree days 0 0  
Cooling Degree Days 13 9  
Month to date cooling degree days 185 90  
Year to date cooling degree days 634 380  
Since 1 June cooling degree days 433 298  
Growing Degree Days 28 (Base 50)    
Moisture  
Dew Point 56 °F    
Average Humidity 58    
Maximum Humidity 93    
Minimum Humidity 22    
Precipitation  
Precipitation 0.00 in 0.19 in 1.24 in (2004)
Month to date precipitation 0.73 1.62  
Year to date precipitation 12.68 26.40  
Sea Level Pressure  
Sea Level Pressure 30.00 in    
Wind  
Wind Speed 5 mph (NE)    
Max Wind Speed 12 mph    
Max Gust Speed 16 mph    
Visibility 10 miles    
Events      
T = Trace of Precipitation, MM = Missing Value Source: NWS Daily Summary

Daily Weather History Graph

Daily Weather History Graph

Search for Another Location

Airport or City:

Trip Planner

Search our weather history database for the weather conditions in past years. The results will help you decide how hot, cold, wet, or windy it might be!

Date:

Astronomy

Jul. 10, 2012 Rise Set
Actual Time 6:29 AM EDT 9:14 PM EDT
Civil Twilight 5:57 AM EDT 9:45 PM EDT
Nautical Twilight 5:18 AM EDT 10:25 PM EDT
Astronomical Twilight 4:33 AM EDT 11:09 PM EDT
Moon 12:33 AM EDT (7/10) 1:51 PM EDT (7/10)
Length of Visible Light 15h 47m
Length of Day
14h 44m
Waning Gibbous, 54% of the Moon is Illuminated
Jul 10
Waning Gibbous
Jul 10
Last Quarter
Jul 19
New
Jul 26
First Quarter
Aug 1
Full

Hourly Weather History & Observations

Time (EDT) Temp. Heat Index Dew Point Humidity Pressure Visibility Wind Dir Wind Speed Gust Speed Precip Events Conditions
12:53 AM 66.0 °F - 63.0 °F 90% 30.00 in 10.0 mi Calm Calm - N/A   Clear
1:53 AM 66.9 °F - 63.0 °F 87% 30.00 in 10.0 mi Calm Calm - N/A   Clear
2:53 AM 64.0 °F - 62.1 °F 93% 29.99 in 10.0 mi Calm Calm - N/A   Clear
3:53 AM 63.0 °F - 61.0 °F 93% 30.00 in 9.0 mi Calm Calm - N/A   Clear
4:53 AM 63.0 °F - 61.0 °F 93% 29.99 in 10.0 mi Calm Calm - N/A   Clear
5:53 AM 62.1 °F - 60.1 °F 93% 30.00 in 10.0 mi Calm Calm - N/A   Clear
6:53 AM 62.1 °F - 60.1 °F 93% 30.00 in 9.0 mi Calm Calm - N/A   Clear
7:53 AM 70.0 °F - 63.0 °F 78% 30.01 in 10.0 mi Calm Calm - N/A   Clear
8:53 AM 77.0 °F - 57.9 °F 52% 30.02 in 10.0 mi NE 9.2 mph - N/A   Clear
9:53 AM 80.1 °F 80.4 °F 57.0 °F 45% 30.03 in 10.0 mi ENE 6.9 mph - N/A   Clear
10:53 AM 84.9 °F 83.7 °F 55.9 °F 37% 30.02 in 10.0 mi ENE 8.1 mph - N/A   Clear
11:53 AM 89.1 °F 86.9 °F 54.0 °F 30% 30.03 in 10.0 mi NNE 6.9 mph - N/A   Clear
12:53 PM 89.1 °F - 52.0 °F 28% 30.02 in 10.0 mi Variable 5.8 mph - N/A   Clear
1:53 PM 91.9 °F - 52.0 °F 26% 30.01 in 10.0 mi NE 8.1 mph - N/A   Clear
2:53 PM 93.0 °F - 52.0 °F 25% 29.99 in 10.0 mi NNE 8.1 mph 16.1 mph N/A   Clear
3:53 PM 91.9 °F - 52.0 °F 26% 29.97 in 10.0 mi Variable 5.8 mph - N/A   Partly Cloudy
4:53 PM 89.1 °F - 50.0 °F 26% 29.97 in 10.0 mi NE 9.2 mph - N/A   Partly Cloudy
5:53 PM 93.0 °F - 48.0 °F 21% 29.97 in 10.0 mi North 5.8 mph - N/A   Partly Cloudy
6:53 PM 91.9 °F - 50.0 °F 24% 29.96 in 10.0 mi NNE 9.2 mph - N/A   Clear
7:53 PM 89.1 °F 86.7 °F 53.1 °F 29% 29.96 in 10.0 mi NE 8.1 mph - N/A   Partly Cloudy
8:53 PM 84.9 °F 83.3 °F 54.0 °F 34% 29.97 in 10.0 mi NE 6.9 mph - N/A   Partly Cloudy
9:53 PM 79.0 °F - 55.9 °F 45% 29.98 in 10.0 mi North 5.8 mph - N/A   Clear
10:53 PM 75.9 °F - 55.9 °F 50% 30.01 in 10.0 mi NNE 5.8 mph - N/A   Clear
11:53 PM 75.0 °F - 55.9 °F 51% 30.01 in 10.0 mi NNE 4.6 mph - N/A   Clear